This demonstration page uses our WeatherBlox Daily Observations layout. Learn more.

Left ArrowRight Arrow

Hourly Observations for May 8, 2016

Temp ( °F °C ) Dew Point ( °F °C ) Humidity (%) Winds ( mph kmh ) Pressure ( in mb ) Visibility ( mi km ) Precip ( " mm )
12:54 am 00:54 Hazy 62 16.7 36 2.2 38 38 E 7 11 29.88 1012 6 10 0.00 0.00
1:54 am 01:54 Hazy 61 16.1 36 2.2 39 39 E 9 15 29.87 1012 6 10 0.00 0.00
2:54 am 02:54 Mostly Cloudy with Haze 60 15.6 37 2.8 42 42 ENE 5 7 29.88 1012 6 10 0.00 0.00
3:54 am 03:54 Hazy 58 14.4 37 2.8 46 46 ENE 13 20 29.80 1009 6 10 0.00 0.00
4:54 am 04:54 Hazy 58 14.4 37 2.8 46 46 E 5 7 29.81 1010 6 10 0.00 0.00
5:54 am 05:54 Hazy 58 14.4 38 3.3 48 48 E 8 13 29.78 1009 6 10 0.00 0.00
6:54 am 06:54 Hazy 55 12.8 39 3.9 55 55 NNE 8 13 29.80 1009 5 8 0.00 0.00
7:54 am 07:54 Hazy 59 15 39 3.9 48 48 ENE 9 15 29.80 1009 5 8 0.00 0.00
8:54 am 08:54 Hazy 62 16.7 40 4.4 44 44 E 12 19 29.79 1009 5 8 0.00 0.00
9:54 am 09:54 Hazy 66 18.9 42 5.6 42 42 E 12 19 29.77 1008 5 8 0.00 0.00
10:54 am 10:54 Hazy 68 20 46 7.8 45 45 SE 15 24 29.78 1009 5 8 0.00 0.00
11:54 am 11:54 Hazy 71 21.7 49 9.4 46 46 SE 18 30 29.75 1008 6 10 0.00 0.00
12:54 pm 12:54 Hazy 73 22.8 52 11.1 48 48 ESE 20 31 29.73 1007 6 10 0.00 0.00
1:54 pm 13:54 Hazy 75 23.9 54 12.2 48 48 ESE 15 24 29.69 1005 6 10 0.00 0.00
2:54 pm 14:54 Hazy 77 25 56 13.3 48 48 ESE 17 28 29.68 1005 6 10 0.00 0.00
3:54 pm 15:54 Sunny 76 24.4 57 13.9 52 52 SE 21 33 29.67 1005 7 11 0.00 0.00
4:54 pm 16:54 Partly Cloudy 77 25 57 13.9 50 50 SE 18 30 29.65 1004 10 16 0.00 0.00
5:54 pm 17:54 Partly Cloudy 76 24.4 58 14.4 54 54 SE 20 31 29.64 1004 10 16 0.00 0.00
6:54 pm 18:54 Partly Cloudy 72 22.2 58 14.4 61 61 SE 21 33 29.64 1004 10 16 0.00 0.00
7:54 pm 19:54 Partly Cloudy 70 21.1 59 15 68 68 SE 13 20 29.65 1004 10 16 0.00 0.00
8:54 pm 20:54 Mostly Cloudy 69 20.6 59 15 70 70 SE 13 20 29.67 1005 10 16 0.00 0.00
9:54 pm 21:54 Mostly Cloudy 68 20 59 15 73 73 SE 14 22 29.67 1005 10 16 0.00 0.00
10:47 pm 22:47 Mostly Cloudy 67 19.4 59 15 76 76 ESE 15 24 29.65 1004 10 16 0.00 0.00
10:54 pm 22:54 Cloudy 67 19.4 59 15 76 76 ESE 14 22 29.65 1004 10 16 0.00 0.00
11:05 pm 23:05 Cloudy with Thunderstorms 67 19.4 59 15 76 76 ESE 15 24 29.65 1004 10 16 0.00 0.00
11:20 pm 23:20 Cloudy with Nearby Thunderstorms 66 19 57 14 73 73 SE 18 30 29.65 1004 10 16 0.00 0.00
11:46 pm 23:46 Cloudy with Thunderstorms 65 18.3 60 15.6 84 84 SSE 13 20 29.65 1004 7 11 0.00 0.03
11:54 pm 23:54 Cloudy with Thunderstorms 64 17.8 60 15.6 87 87 S 9 15 29.65 1004 3 5 0.04 1.02

Powered by AerisWeather